This demonstration page uses our WeatherBlox Daily Observations layout. Learn more.

Left ArrowRight Arrow

39.01783, -85.05884

Hourly Observations for May 6, 2021

Temp ( °F °C ) Dew Point ( °F °C ) Humidity (%) Winds ( mph kmh ) Pressure ( in mb ) Visibility ( mi km ) Precip ( " mm )
12:52 am 00:52 Clear 47 8.3 35 1.7 63 63 NW 7 11 30.14 1021 10 16.0934 N/A
1:52 am 01:52 Clear 46 7.8 35 1.7 66 66 NNW 7 11 30.14 1021 10 16.0934 N/A
2:52 am 02:52 Clear 45 7.2 33 0.6 63 63 N 3 6 30.13 1020 10 16.0934 N/A
3:52 am 03:52 Clear 44 6.7 34 1.1 68 68 NNE 3 6 30.11 1020 10 16.0934 N/A
4:52 am 04:52 Mostly Clear 42 5.6 34 1.1 73 73 NNW 3 6 30.11 1020 10 16.0934 N/A
5:52 am 05:52 Mostly Clear 39 3.9 34 1.1 82 82 WNW 3 6 30.13 1020 10 16.0934 N/A
6:52 am 06:52 Mostly Cloudy 40 4.4 35 1.7 83 83 N N/A 30.13 1020 10 16.0934 N/A
7:52 am 07:52 Mostly Cloudy 44 6.7 38 3.3 79 79 N N/A 30.14 1021 10 16.0934 N/A
8:52 am 08:52 Mostly Cloudy 50 10 38 3.3 63 63 N N/A 30.15 1021 10 16.0934 N/A
9:52 am 09:52 Cloudy 53 11.7 39 3.9 59 59 SSE 8 13 30.15 1021 10 16.0934 N/A
10:52 am 10:52 Mostly Cloudy 56 13.3 41 5 57 57 S 12 19 30.14 1021 10 16.0934 N/A
11:52 am 11:52 Mostly Cloudy 58 14.4 39 3.9 50 50 S 9 15 30.12 1020 10 16.0934 N/A
12:52 pm 12:52 Partly Cloudy 60 15.6 39 3.9 46 46 N N/A 30.1 1019 10 16.0934 N/A
1:52 pm 13:52 Partly Cloudy 61 16.1 39 3.9 44 44 S 5 7 30.06 1018 10 16.0934 N/A
2:52 pm 14:52 Cloudy 62 16.7 37 2.8 40 40 VRB 3 6 30.04 1017 10 16.0934 N/A
3:52 pm 15:52 Cloudy 61 16.1 38 3.3 43 43 N N/A 30.02 1017 10 16.0934 N/A
4:52 pm 16:52 Cloudy with Light Rain 60 15.6 38 3.3 44 44 NW 7 11 30.01 1016 10 16.0934 0.001 0.001
5:52 pm 17:52 Cloudy 60 15.6 40 4.4 47 47 SW 5 7 30 1016 10 16.0934 0.001 0.001
6:52 pm 18:52 Cloudy 58 14.4 40 4.4 51 51 W 8 13 29.99 1016 10 16.0934 N/A
7:52 pm 19:52 Cloudy with Light Rain 58 14.4 42 5.6 56 56 NNW 5 7 29.97 1015 10 16.0934 0.001 0.001
8:52 pm 20:52 Cloudy with Light Rain 54 12.2 45 7.2 72 72 NW 9 15 29.98 1015 10 16.0934 0.001 0.001
9:52 pm 21:52 Cloudy with Rain 51 10.6 48 8.9 89 89 WNW 9 15 30.01 1016 5 8.0467 0.03 0.762
10:28 pm 22:28 Cloudy with Rain 49 9.4 46 7.8 90 90 WNW 9 15 30.03 1017 4 6.43736 0.09 2.286
10:49 pm 22:49 Cloudy with Light Rain 48 9 45 7 87 87 W 6 9 30.03 1017 10 16.0934 0.1 2.54
10:52 pm 22:52 Cloudy with Light Rain 49 9.4 45 7.2 86 86 W 6 9 30.01 1016 10 16.0934 0.11 2.794
11:52 pm 23:52 Cloudy 48 8.9 45 7.2 89 89 WSW 3 6 29.99 1016 10 16.0934 0.03 0.762

Powered by AerisWeather